RH
38 42 39 37 36 35 35 33 32 27 22 54 70 78 73 74 68 73 70 72 72 74 68 65 66 69 69 69 71 69 70 71 70 72 76 77 77 73 72 71 72 75 76 81
36 44 32 35 39 39 41 39 34 28 26 50 78 84 81 72 77 78 79 82 81 80 74 68 70 70 72 72 73 71 70 67 65 66 66 71 74 71 68 67 74 75 77 76
35 24 32 37 44 42 44 34 34 30 34 64 67 80 78 70 71 71 77 85 83 86 85 78 74 73 73 76 78 73 67 64 65 66 67 70 71 71 74 74 72 74 76 77
39 28 27 41 40 39 48 30 27 30 38 44 49 53 81 78 80 81 87 93 93 90 80 78 73 74 73 73 75 71 66 65 62 66 72 74 76 81 80 80 76 75 75 78
44 41 46 42 33 34 41 31 30 36 42 52 49 55 73 79 88 88 93 88 89 85 77 84 76 72 71 73 75 71 68 67 65 67 70 77 81 81 76 83 85 82 78 80
38 30 31 34 31 29 31 40 50 56 54 75 44 39 66 93 83 89 86 84 82 82 79 82 80 73 79 80 75 69 69 68 68 71 73 77 80 86 85 82 87 86 83 81
35 30 29 29 38 37 37 40 63 72 76 58 57 45 54 89 83 83 86 86 86 84 85 81 92 91 87 89 71 69 72 73 72 73 78 78 80 84 90 90 88 89 88 86
48 55 32 30 34 41 43 40 54 67 82 76 56 66 75 80 78 78 80 86 87 88 87 84 94 94 92 91 79 77 78 77 75 75 80 77 78 86 88 89 89 91 91 91
54 50 34 31 34 29 47 52 39 64 72 84 71 84 84 82 85 81 84 83 93 92 92 92 93 92 94 93 88 86 84 78 78 78 80 78 80 79 86 88 88 89 89 85
43 57 39 33 32 33 38 41 57 75 84 85 89 90 81 94 87 86 94 94 95 90 92 94 95 94 92 92 91 90 84 81 79 81 80 78 80 80 81 84 81 85 89 91
31 50 47 35 46 41 45 54 62 61 73 78 88 85 88 85 83 88 91 93 95 96 96 98 97 95 95 94 93 92 91 86 84 82 79 80 78 79 83 86 82 84 87 91
38 52 53 39 28 33 31 50 63 70 76 84 83 86 84 86 84 86 86 91 97 96 96 97 96 95 95 94 94 95 92 90 90 87 83 83 80 81 85 86 85 85 87 85
50 78 66 58 47 38 45 48 58 67 72 85 87 85 84 86 89 86 91 96 98 94 96 98 96 95 95 95 95 94 93 88 91 88 84 86 86 86 85 87 88 86 81 82
58 74 79 77 72 70 60 57 60 68 76 78 83 87 99 97 97 97 90 94 96 95 97 98 86 95 95 95 96 94 94 86 90 88 85 87 88 88 88 85 86 88 86 86
64 80 75 64 51 63 78 65 59 72 60 61 63 77 87 91 95 96 94 94 92 92 93 98 96 96 96 94 94 92 89 86 89 85 83 85 82 85 84 84 84 85 85 86
74 89 83 73 58 59 79 67 58 53 64 80 85 78 82 88 90 90 92 94 92 94 93 86 84 81 81 85 89 87 82 83 86 80 79 80 79 77 80 81 82 82 83 85
80 88 92 87 65 94 96 87 77 65 73 76 82 76 90 92 82 85 89 80 82 82 85 84 87 80 80 91 87 92 89 83 78 79 76 78 84 74 75 72 73 76 79 81
91 95 99 96 89 96 75 79 74 77 83 86 86 90 84 82 81 81 81 82 75 76 80 82 90 87 88 91 90 86 86 84 81 77 77 79 82 73 74 72 72 74 71 71
83 95 98 97 96 84 83 76 78 72 75 82 91 88 83 80 80 91 76 78 85 88 95 95 96 86 91 92 88 86 88 85 85 82 81 80 84 72 75 77 75 74 72 67
86 92 98 97 94 95 75 72 62 60 81 80 81 83 81 78 93 91 83 81 86 87 88 94 94 90 91 96 89 93 95 93 96 94 87 83 80 75 76 77 77 72 70 62
98 99 96 90 96 77 64 66 59 77 80 80 76 78 78 86 88 87 80 84 86 90 93 91 92 96 97 96 93 93 90 97 97 93 86 85 84 82 72 77 78 73 71 68
88 93 92 84 91 86 65 59 68 80 88 81 80 78 81 88 84 80 78 83 87 94 94 92 92 94 94 95 96 92 91 98 96 95 94 94 94 86 79 85 88 78 78 80
87 74 86 79 82 84 83 79 81 80 85 83 80 82 80 81 78 76 82 82 86 96 98 90 95 92 92 95 98 94 98 96 96 94 96 96 95 94 95 97 94 92 89 89
82 74 87 82 84 86 84 81 78 76 80 75 74 75 75 80 78 83 83 82 91 99 99 98 94 97 97 96 85 97 89 86 88 95 95 95 97 94 95 95 98 94 94 93
78 76 92 94 90 83 80 84 80 79 76 77 73 72 76 78 84 84 85 84 90 96 94 95 97 98 98 96 92 92 89 85 78 81 82 89 90 97 96 95 95 96 90 82
80 88 90 89 83 82 83 83 76 78 77 74 77 81 76 76 84 86 84 84 87 92 92 89 88 89 94 88 87 87 87 85 80 78 79 93 91 96 96 98 95 78 74 71
Wind_Speed
2 2 8 10 7 2 2 2 2 3 2 8 3 5 4 3 6 7 7 8 9 8 6 7 8 8 9 10 12 13 15 16 13 13 14 12 13 12 10 10 14 16 13 14
3 6 7 4 5 4 3 3 5 4 1 7 3 2 1 2 3 4 5 5 5 7 9 11 10 8 8 10 12 14 15 16 13 12 12 11 12 10 12 13 14 14 16 16
6 4 5 5 3 4 3 5 4 5 3 5 7 3 5 2 4 4 4 2 3 6 8 12 11 10 11 15 16 15 15 15 13 15 11 11 10 11 8 12 13 14 16 16
6 8 6 2 4 8 6 8 6 4 3 5 3 7 4 6 5 2 3 5 5 5 5 10 12 14 15 13 11 12 15 15 13 15 13 17 12 14 11 12 12 15 18 17
9 2 2 4 7 5 8 6 7 4 3 2 4 1 1 8 6 4 2 3 3 5 7 10 13 13 12 13 12 14 15 16 16 17 14 11 13 12 14 12 17 16 13 16
5 1 4 8 5 10 4 5 7 4 3 3 9 8 5 6 5 4 1 3 5 6 6 7 9 11 12 11 13 14 16 16 17 15 15 15 16 17 15 16 13 12 12 12
2 11 4 4 2 2 5 6 1 2 1 8 1 6 2 5 3 4 4 4 5 5 5 7 9 10 11 12 15 13 14 15 17 17 15 15 15 16 17 16 13 16 12 12
3 7 10 8 15 9 7 8 6 6 5 4 2 7 3 4 6 6 7 5 4 5 5 6 7 7 8 10 12 13 14 15 16 18 16 14 14 9 11 13 13 11 12 13
3 7 4 3 4 13 6 11 7 4 2 1 3 2 2 6 6 6 4 4 3 4 4 6 6 7 8 9 11 11 13 13 14 15 13 14 12 15 13 15 14 11 13 13
6 6 3 3 3 1 8 9 4 1 4 5 2 4 5 12 10 7 3 2 1 2 4 5 5 7 7 7 8 8 11 12 14 14 13 13 13 13 14 13 17 16 14 15
12 3 7 3 2 4 3 3 1 4 4 4 1 6 4 10 9 8 6 5 4 3 1 2 4 5 6 6 8 10 10 11 12 12 14 14 15 15 14 12 15 16 16 16
9 2 10 18 12 2 6 6 6 6 6 1 2 8 3 6 7 7 7 6 4 1 2 2 5 5 6 7 7 8 9 11 12 11 12 14 15 15 15 15 16 16 16 16
5 2 9 7 1 8 8 5 3 4 3 6 6 5 3 5 6 5 7 4 3 3 3 4 6 6 7 6 6 7 9 13 11 11 12 13 13 13 15 15 16 16 18 19
6 6 9 9 3 1 7 6 4 3 6 4 6 3 8 9 9 7 6 4 4 1 1 1 7 5 6 6 6 8 9 12 11 11 13 14 13 12 12 13 13 14 15 16
5 3 3 7 11 4 4 11 10 13 12 6 8 10 8 16 13 8 6 5 5 2 3 3 4 5 5 7 7 8 10 12 11 13 13 14 13 11 12 13 13 13 14 14
6 8 2 4 5 7 8 17 17 16 2 4 4 4 2 7 9 8 9 7 5 3 3 5 5 7 9 8 8 9 12 13 11 13 13 14 14 13 14 14 14 14 15 16
3 3 2 10 3 4 9 13 12 6 4 8 7 6 8 6 11 11 9 7 5 4 3 5 5 7 6 7 8 9 9 10 11 12 13 14 13 15 16 15 16 17 17 16
6 4 4 2 4 8 5 1 2 8 3 3 4 7 9 10 6 7 4 6 6 5 4 6 5 4 5 5 7 8 9 10 11 12 13 13 14 14 15 16 16 16 15 16
3 6 3 3 3 4 2 5 7 8 6 6 9 10 13 14 8 3 4 4 5 5 5 5 4 2 4 7 7 7 9 9 10 13 13 13 13 14 14 15 16 15 14 14
7 5 3 2 3 3 3 3 4 4 6 12 11 15 17 12 6 4 8 7 6 6 6 5 4 3 5 6 6 7 8 9 10 10 11 11 11 13 14 13 13 13 12 12
4 3 7 5 5 5 3 7 4 5 6 11 13 15 16 7 1 10 12 7 6 6 7 5 5 4 4 5 6 8 9 9 7 8 9 10 11 8 13 12 10 12 12 12
7 6 5 6 4 8 5 4 7 4 4 9 9 10 11 11 14 14 11 10 8 7 6 5 5 4 4 5 5 8 9 6 5 6 7 8 8 9 8 11 11 12 12 12
5 7 6 7 6 1 3 1 3 5 6 5 9 11 14 16 14 13 11 9 7 6 5 4 5 4 4 5 4 8 6 4 5 6 6 6 6 7 7 6 9 9 11 10
1 1 4 4 2 2 1 3 3 5 6 9 12 15 15 16 14 12 10 9 7 4 5 3 5 4 4 4 6 3 6 6 5 5 5 5 6 7 7 6 5 7 8 8
3 6 5 1 1 2 1 2 6 10 12 14 12 13 14 16 13 13 10 9 7 6 5 4 4 3 3 3 4 4 5 5 5 6 7 6 5 5 6 5 6 4 8 12
4 6 5 6 10 4 5 9 9 13 12 13 13 11 11 14 14 12 10 9 8 8 6 5 4 4 2 3 4 4 4 3 4 5 5 4 4 4 4 4 5 13 13 18
Wind_Direction
20 68 219 199 190 117 124 216 250 274 315 89 70 133 161 111 58 49 43 27 19 9 345 359 5 357 355 2 3 3 358 360 358 359 352 350 343 335 329 327 326 327 316 313
13 239 244 200 171 194 227 234 254 288 268 89 163 166 236 194 85 75 48 32 16 355 360 1 359 356 359 3 10 8 3 1 360 357 346 341 332 331 328 332 322 320 319 315
183 242 42 163 173 179 227 207 210 208 74 70 120 263 209 171 136 122 87 59 29 10 357 355 349 352 2 13 7 4 359 358 358 356 344 341 329 333 330 331 328 320 318 316
232 254 245 204 237 179 224 203 205 207 115 246 174 280 225 182 180 138 41 17 0 356 13 357 354 3 7 6 0 360 1 355 358 352 348 350 342 334 327 323 320 320 318 313
236 200 162 238 222 180 239 182 192 169 142 32 186 301 288 130 220 195 43 8 8 12 28 9 0 358 358 358 358 359 358 358 359 356 350 343 335 334 330 326 322 316 314 311
221 217 181 196 213 199 141 74 47 54 91 287 197 181 219 183 197 153 140 17 21 19 26 25 355 358 353 354 359 357 358 358 357 354 349 345 345 337 331 332 324 322 322 320
240 236 211 189 166 108 126 117 293 315 207 234 309 196 282 165 140 134 141 60 24 26 19 19 2 357 351 355 1 0 354 355 355 357 350 346 348 334 323 327 325 328 329 328
210 314 190 195 196 183 195 160 171 214 203 253 59 223 258 138 138 132 106 107 62 27 18 27 7 351 346 351 356 355 352 354 355 358 351 346 344 334 325 327 327 328 329 324
234 274 281 228 167 166 191 207 178 119 0 60 212 311 203 147 163 149 128 87 58 36 14 41 8 352 347 350 343 347 350 354 354 354 351 348 347 342 335 332 332 334 330 334
225 274 262 298 134 297 185 157 146 131 207 227 243 253 236 191 185 164 166 139 143 34 38 38 3 350 344 339 327 342 349 356 349 351 352 348 348 344 339 340 343 342 338 341
227 187 247 75 229 194 159 203 96 138 161 194 239 257 217 189 171 168 175 188 203 243 0 25 345 341 329 310 339 345 346 351 351 355 354 351 354 350 347 349 346 347 348 349
200 213 253 251 253 359 297 223 176 197 213 161 122 271 349 141 142 149 167 173 199 148 47 28 4 343 332 336 340 338 344 352 350 348 355 357 353 353 352 353 355 351 351 352
183 209 259 295 343 223 228 262 173 123 94 172 164 258 130 120 142 159 169 168 117 72 35 11 11 356 331 333 332 339 349 0 348 352 2 357 356 354 353 352 354 350 357 359
190 182 178 227 208 136 191 189 182 176 221 194 216 200 203 195 188 178 172 142 125 108 56 3 19 351 336 328 336 350 353 1 351 359 5 360 358 352 351 352 355 350 353 0
128 281 253 239 236 175 224 285 243 236 233 212 248 195 208 199 190 186 160 153 131 88 54 52 35 338 336 346 344 348 358 1 357 5 5 2 356 354 356 357 357 355 359 4
153 214 160 244 222 204 240 233 257 241 213 102 166 222 203 117 116 147 170 156 154 147 60 42 36 9 5 348 352 357 4 1 360 8 6 1 359 357 1 360 360 1 3 7
160 154 157 251 233 39 270 226 235 194 182 155 188 197 146 130 156 166 153 158 154 132 118 85 44 15 353 352 355 359 351 353 9 8 6 3 357 359 1 1 1 5 6 5
142 114 178 269 162 230 237 287 179 184 148 168 98 142 146 133 106 104 128 138 148 146 126 84 56 19 348 350 3 0 4 8 11 13 10 5 2 5 3 3 4 2 2 7
104 135 209 249 225 307 277 188 164 176 224 175 133 117 112 109 80 26 120 121 150 145 110 96 93 47 10 10 3 12 14 12 11 15 13 10 5 7 7 7 0 358 1 7
126 141 189 185 242 263 256 156 165 114 278 174 148 148 141 147 165 203 157 142 130 107 109 103 83 43 33 8 17 31 17 14 9 2 9 13 11 17 9 4 1 360 2 8
148 178 223 228 266 281 188 147 164 149 240 144 150 150 155 166 161 129 134 126 122 117 114 102 79 62 34 22 31 46 25 16 348 358 11 19 11 23 9 3 1 6 8 10
170 173 188 199 224 252 141 82 182 196 35 135 135 143 135 116 122 128 132 130 125 120 108 100 90 61 28 29 50 47 28 333 355 2 12 13 14 18 17 8 1 7 10 14
195 187 182 184 205 337 336 3 90 125 132 147 126 131 133 135 138 138 137 135 135 129 114 98 107 82 37 26 63 42 354 352 4 14 12 11 8 15 4 4 7 8 10 17
218 144 129 115 184 204 222 55 71 115 115 122 128 134 140 138 141 136 139 141 134 131 123 117 105 72 40 19 42 18 11 2 19 19 16 18 9 21 6 360 3 12 16 14
189 129 132 51 288 99 258 167 138 108 110 114 124 138 139 137 144 145 148 146 144 142 130 122 116 95 25 5 37 23 13 5 32 42 38 28 25 7 6 4 2 23 8 27
191 168 170 220 185 158 163 154 141 131 133 136 136 132 144 143 147 149 148 148 146 145 143 132 126 111 53 35 30 8 357 35 48 51 39 23 29 21 14 8 357 16 27 27